Time,TemperatureF,DewpointF,PressureIn,WindDirection,WindDirectionDegrees,WindSpeedMPH,WindSpeedGustMPH,Humidity,HourlyPrecipIn,Conditions,Clouds,dailyrainin,SoftwareType,DateUTC
2013-03-01 00:01:00,22.0,6.0,30.27,North,2,1.0,3.0,50,0.00,,,0.00,,2013-03-01 07:01:00,
2013-03-01 00:11:00,22.0,6.0,30.27,North,2,1.0,3.0,50,0.00,,,0.00,,2013-03-01 07:11:00,
2013-03-01 00:21:00,22.0,7.0,30.27,North,356,1.0,1.0,51,0.00,,,0.00,,2013-03-01 07:21:00,
2013-03-01 00:31:00,21.0,7.0,30.26,NNW,332,3.0,7.0,53,0.00,,,0.00,,2013-03-01 07:31:00,
2013-03-01 00:41:00,21.0,7.0,30.26,NNW,332,3.0,7.0,53,0.00,,,0.00,,2013-03-01 07:41:00,
2013-03-01 00:52:00,21.0,7.0,30.26,NNW,332,3.0,7.0,53,0.00,,,0.00,,2013-03-01 07:52:00,
2013-03-01 01:01:00,21.0,6.0,30.25,NNE,19,2.0,5.0,52,0.00,,,0.00,,2013-03-01 08:01:00,
2013-03-01 01:11:00,21.0,6.0,30.25,NNE,19,2.0,5.0,52,0.00,,,0.00,,2013-03-01 08:11:00,
2013-03-01 01:21:00,21.0,7.0,30.26,North,0,0.0,0.0,54,0.00,,,0.00,,2013-03-01 08:21:00,
2013-03-01 01:31:00,20.0,6.0,30.25,North,0,0.0,0.0,55,0.00,,,0.00,,2013-03-01 08:31:00,
2013-03-01 01:42:00,20.0,6.0,30.25,North,0,0.0,0.0,55,0.00,,,0.00,,2013-03-01 08:42:00,
2013-03-01 01:52:00,20.0,6.0,30.26,North,350,1.0,3.0,55,0.00,,,0.00,,2013-03-01 08:52:00,
2013-03-01 02:01:00,21.0,7.0,30.26,NNE,23,1.0,10.0,53,0.00,,,0.00,,2013-03-01 09:01:00,
2013-03-01 02:11:00,21.0,7.0,30.26,NNE,23,1.0,10.0,53,0.00,,,0.00,,2013-03-01 09:11:00,
2013-03-01 02:21:00,22.0,7.0,30.26,ENE,68,3.0,3.0,51,0.00,,,0.00,,2013-03-01 09:21:00,
2013-03-01 02:31:00,22.0,7.0,30.26,SE,125,0.0,0.0,51,0.00,,,0.00,,2013-03-01 09:31:00,
2013-03-01 02:41:00,22.0,7.0,30.26,SE,125,0.0,0.0,51,0.00,,,0.00,,2013-03-01 09:41:00,
2013-03-01 02:51:00,21.0,6.0,30.26,East,96,2.0,5.0,52,0.00,,,0.00,,2013-03-01 09:51:00,
2013-03-01 03:01:00,22.0,7.0,30.26,East,79,1.0,6.0,52,0.00,,,0.00,,2013-03-01 10:01:00,
2013-03-01 03:11:00,22.0,7.0,30.26,East,79,1.0,6.0,52,0.00,,,0.00,,2013-03-01 10:11:00,
2013-03-01 03:21:00,21.0,7.0,30.26,NNW,332,1.0,3.0,53,0.00,,,0.00,,2013-03-01 10:21:00,
2013-03-01 03:31:00,21.0,8.0,30.24,NE,50,2.0,3.0,56,0.00,,,0.00,,2013-03-01 10:31:00,
2013-03-01 03:41:00,21.0,8.0,30.24,NE,50,2.0,3.0,56,0.00,,,0.00,,2013-03-01 10:41:00,
2013-03-01 03:51:00,21.0,8.0,30.25,NE,43,1.0,0.0,56,0.00,,,0.00,,2013-03-01 10:51:00,
2013-03-01 04:01:00,21.0,9.0,30.25,East,93,2.0,3.0,59,0.00,,,0.00,,2013-03-01 11:01:00,
2013-03-01 04:11:00,21.0,9.0,30.25,East,93,2.0,3.0,59,0.00,,,0.00,,2013-03-01 11:11:00,
2013-03-01 04:22:00,21.0,8.0,30.24,NW,307,1.0,3.0,57,0.00,,,0.00,,2013-03-01 11:22:00,
2013-03-01 04:31:00,21.0,8.0,30.24,NW,314,1.0,2.0,57,0.00,,,0.00,,2013-03-01 11:31:00,
2013-03-01 04:41:00,21.0,8.0,30.24,NW,314,1.0,2.0,57,0.00,,,0.00,,2013-03-01 11:41:00,
2013-03-01 04:52:00,21.0,8.0,30.24,NW,314,0.0,0.0,57,0.00,,,0.00,,2013-03-01 11:52:00,
2013-03-01 05:01:00,21.0,8.0,30.24,NNW,338,1.0,3.0,57,0.00,,,0.00,,2013-03-01 12:01:00,
2013-03-01 05:11:00,21.0,8.0,30.24,NNW,338,1.0,3.0,57,0.00,,,0.00,,2013-03-01 12:11:00,
2013-03-01 05:21:00,21.0,9.0,30.24,NNW,327,2.0,3.0,58,0.00,,,0.00,,2013-03-01 12:21:00,
2013-03-01 05:32:00,22.0,9.0,30.25,WNW,297,1.0,3.0,56,0.00,,,0.00,,2013-03-01 12:32:00,
2013-03-01 05:41:00,22.0,9.0,30.25,WNW,297,1.0,3.0,56,0.00,,,0.00,,2013-03-01 12:41:00,
2013-03-01 05:52:00,23.0,10.0,30.25,NE,47,2.0,3.0,56,0.00,,,0.00,,2013-03-01 12:52:00,
2013-03-01 06:01:00,23.0,10.0,30.25,NNE,27,5.0,7.0,56,0.00,,,0.00,,2013-03-01 13:01:00,
2013-03-01 06:11:00,23.0,10.0,30.25,SSW,204,2.0,3.0,56,0.00,,,0.00,,2013-03-01 13:11:00,
2013-03-01 06:21:00,23.0,10.0,30.25,SSW,204,2.0,3.0,56,0.00,,,0.00,,2013-03-01 13:21:00,
2013-03-01 06:32:00,23.0,10.0,30.25,North,357,2.0,3.0,56,0.00,,,0.00,,2013-03-01 13:32:00,
2013-03-01 06:41:00,23.0,10.0,30.25,North,357,2.0,3.0,56,0.00,,,0.00,,2013-03-01 13:41:00,
2013-03-01 06:51:00,22.0,9.0,30.26,NE,49,1.0,0.0,57,0.00,,,0.00,,2013-03-01 13:51:00,
2013-03-01 07:01:00,22.0,10.0,30.26,NNE,17,1.0,3.0,58,0.00,,,0.00,,2013-03-01 14:01:00,
2013-03-01 07:11:00,22.0,10.0,30.26,NNE,17,1.0,3.0,58,0.00,,,0.00,,2013-03-01 14:11:00,
2013-03-01 07:21:00,22.0,10.0,30.27,East,83,1.0,3.0,58,0.00,,,0.00,,2013-03-01 14:21:00,
2013-03-01 07:32:00,23.0,10.0,30.27,North,358,0.0,0.0,56,0.00,,,0.00,,2013-03-01 14:32:00,
2013-03-01 07:41:00,23.0,10.0,30.27,North,358,0.0,0.0,56,0.00,,,0.00,,2013-03-01 14:41:00,
2013-03-01 07:52:00,24.0,10.0,30.27,East,99,3.0,6.0,54,0.00,,,0.00,,2013-03-01 14:52:00,
2013-03-01 08:01:00,28.0,11.0,30.27,ESE,121,3.0,3.0,49,0.00,,,0.00,,2013-03-01 15:01:00,
2013-03-01 08:11:00,29.0,11.0,30.27,North,3,6.0,14.0,46,0.00,,,0.00,,2013-03-01 15:11:00,
2013-03-01 08:21:00,29.0,11.0,30.27,North,3,6.0,14.0,46,0.00,,,0.00,,2013-03-01 15:21:00,
2013-03-01 08:31:00,31.0,11.0,30.27,North,358,3.0,8.0,42,0.00,,,0.00,,2013-03-01 15:31:00,
2013-03-01 08:42:00,31.0,11.0,30.27,North,358,3.0,8.0,42,0.00,,,0.00,,2013-03-01 15:42:00,
2013-03-01 08:51:00,32.0,10.0,30.27,NNE,33,5.0,9.0,40,0.00,,,0.00,,2013-03-01 15:51:00,
2013-03-01 09:01:00,34.0,11.0,30.27,ENE,63,5.0,7.0,37,0.00,,,0.00,,2013-03-01 16:01:00,
2013-03-01 09:11:00,34.0,11.0,30.27,ENE,63,5.0,7.0,37,0.00,,,0.00,,2013-03-01 16:11:00,
2013-03-01 09:21:00,36.0,12.0,30.27,ESE,118,6.0,10.0,36,0.00,,,0.00,,2013-03-01 16:21:00,
2013-03-01 09:31:00,39.0,12.0,30.27,ENE,74,7.0,10.0,33,0.00,,,0.00,,2013-03-01 16:31:00,
2013-03-01 09:51:00,39.0,12.0,30.27,East,81,5.0,13.0,32,0.00,,,0.00,,2013-03-01 16:51:00,
2013-03-01 10:01:00,41.0,13.0,30.27,SE,132,3.0,6.0,31,0.00,,,0.00,,2013-03-01 17:01:00,
2013-03-01 10:11:00,42.0,12.0,30.28,East,97,9.0,15.0,29,0.00,,,0.00,,2013-03-01 17:11:00,
2013-03-01 10:21:00,42.0,12.0,30.28,East,97,9.0,15.0,29,0.00,,,0.00,,2013-03-01 17:21:00,
2013-03-01 10:31:00,42.0,12.0,30.29,ENE,75,9.0,17.0,29,0.00,,,0.00,,2013-03-01 17:31:00,
2013-03-01 10:41:00,42.0,13.0,30.28,East,92,7.0,13.0,30,0.00,,,0.00,,2013-03-01 17:41:00,
2013-03-01 10:52:00,42.0,13.0,30.28,East,92,7.0,13.0,30,0.00,,,0.00,,2013-03-01 17:52:00,
2013-03-01 11:01:00,43.0,12.0,30.29,ENE,77,9.0,14.0,28,0.00,,,0.00,,2013-03-01 18:01:00,
2013-03-01 11:11:00,43.0,12.0,30.29,ENE,77,9.0,14.0,28,0.00,,,0.00,,2013-03-01 18:11:00,
2013-03-01 11:21:00,44.0,12.0,30.29,ENE,74,6.0,12.0,27,0.00,,,0.00,,2013-03-01 18:21:00,
2013-03-01 11:31:00,45.0,13.0,30.29,East,90,9.0,14.0,27,0.00,,,0.00,,2013-03-01 18:31:00,
2013-03-01 11:41:00,45.0,13.0,30.29,East,98,9.0,16.0,27,0.00,,,0.00,,2013-03-01 18:41:00,
2013-03-01 11:52:00,45.0,13.0,30.29,East,98,9.0,16.0,27,0.00,,,0.00,,2013-03-01 18:52:00,
2013-03-01 12:01:00,46.0,14.0,30.30,NE,34,2.0,8.0,27,0.00,,,0.00,,2013-03-01 19:01:00,
2013-03-01 12:11:00,46.0,14.0,30.30,NE,34,2.0,8.0,27,0.00,,,0.00,,2013-03-01 19:11:00,
2013-03-01 12:21:00,46.0,14.0,30.30,East,91,3.0,5.0,27,0.00,,,0.00,,2013-03-01 19:21:00,
2013-03-01 12:31:00,46.0,14.0,30.29,ESE,110,1.0,2.0,27,0.00,,,0.00,,2013-03-01 19:31:00,
2013-03-01 12:41:00,46.0,14.0,30.29,ESE,110,1.0,2.0,27,0.00,,,0.00,,2013-03-01 19:41:00,
2013-03-01 12:51:00,47.0,14.0,30.29,East,88,7.0,12.0,26,0.00,,,0.00,,2013-03-01 19:51:00,
2013-03-01 13:01:00,47.0,13.0,30.29,NE,47,6.0,12.0,25,0.00,,,0.00,,2013-03-01 20:01:00,
2013-03-01 13:11:00,47.0,13.0,30.29,NE,47,6.0,12.0,25,0.00,,,0.00,,2013-03-01 20:11:00,
2013-03-01 13:21:00,46.0,12.0,30.28,East,99,5.0,8.0,25,0.00,,,0.00,,2013-03-01 20:21:00,
2013-03-01 13:31:00,47.0,13.0,30.28,ESE,113,5.0,6.0,25,0.00,,,0.00,,2013-03-01 20:31:00,
2013-03-01 13:51:00,48.0,13.0,30.28,NNE,32,3.0,9.0,24,0.00,,,0.00,,2013-03-01 20:51:00,
2013-03-01 14:01:00,48.0,13.0,30.27,ENE,75,5.0,9.0,24,0.00,,,0.00,,2013-03-01 21:01:00,
2013-03-01 14:11:00,49.0,14.0,30.27,East,90,5.0,8.0,24,0.00,,,0.00,,2013-03-01 21:11:00,
2013-03-01 14:21:00,49.0,14.0,30.27,East,90,5.0,8.0,24,0.00,,,0.00,,2013-03-01 21:21:00,
2013-03-01 14:31:00,50.0,15.0,30.27,ESE,109,0.0,3.0,24,0.00,,,0.00,,2013-03-01 21:31:00,
2013-03-01 14:41:00,50.0,14.0,30.27,ENE,74,5.0,8.0,23,0.00,,,0.00,,2013-03-01 21:41:00,
2013-03-01 15:01:00,51.0,15.0,30.27,East,97,3.0,9.0,23,0.00,,,0.00,,2013-03-01 22:01:00,
2013-03-01 15:11:00,50.0,12.0,30.27,NNE,21,2.0,10.0,21,0.00,,,0.00,,2013-03-01 22:11:00,
2013-03-01 15:21:00,50.0,12.0,30.27,NNE,21,2.0,10.0,21,0.00,,,0.00,,2013-03-01 22:21:00,
2013-03-01 15:31:00,51.0,14.0,30.27,ESE,105,3.0,6.0,22,0.00,,,0.00,,2013-03-01 22:31:00,
2013-03-01 15:51:00,52.0,13.0,30.27,East,100,3.0,6.0,21,0.00,,,0.00,,2013-03-01 22:51:00,
2013-03-01 16:01:00,52.0,13.0,30.27,East,86,7.0,10.0,21,0.00,,,0.00,,2013-03-01 23:01:00,
2013-03-01 16:11:00,52.0,13.0,30.27,East,86,7.0,10.0,21,0.00,,,0.00,,2013-03-01 23:11:00,
2013-03-01 16:21:00,51.0,12.0,30.27,SE,128,3.0,5.0,21,0.00,,,0.00,,2013-03-01 23:21:00,
2013-03-01 16:31:00,51.0,12.0,30.28,ESE,106,5.0,7.0,21,0.00,,,0.00,,2013-03-01 23:31:00,
2013-03-01 16:52:00,51.0,12.0,30.28,ESE,110,5.0,7.0,21,0.00,,,0.00,,2013-03-01 23:52:00,
2013-03-01 17:01:00,50.0,12.0,30.28,East,86,6.0,8.0,21,0.00,,,0.00,,2013-03-02 00:01:00,
2013-03-01 17:11:00,50.0,12.0,30.28,East,86,6.0,8.0,21,0.00,,,0.00,,2013-03-02 00:11:00,
2013-03-01 17:21:00,49.0,14.0,30.28,ESE,117,6.0,8.0,24,0.00,,,0.00,,2013-03-02 00:21:00,
2013-03-01 17:31:00,46.0,16.0,30.29,ESE,103,0.0,2.0,30,0.00,,,0.00,,2013-03-02 00:31:00,
2013-03-01 17:41:00,43.0,10.0,30.29,ENE,77,1.0,1.0,26,0.00,,,0.00,,2013-03-02 00:41:00,
2013-03-01 17:52:00,43.0,10.0,30.29,ENE,77,1.0,1.0,26,0.00,,,0.00,,2013-03-02 00:52:00,
2013-03-01 18:01:00,40.0,8.0,30.29,ENE,77,0.0,0.0,26,0.00,,,0.00,,2013-03-02 01:01:00,
2013-03-01 18:11:00,40.0,8.0,30.29,ENE,77,0.0,0.0,26,0.00,,,0.00,,2013-03-02 01:11:00,
2013-03-01 18:21:00,38.0,6.0,30.29,ENE,77,0.0,0.0,26,0.00,,,0.00,,2013-03-02 01:21:00,
2013-03-01 18:31:00,37.0,6.0,30.29,NNW,341,0.0,3.0,27,0.00,,,0.00,,2013-03-02 01:31:00,
2013-03-01 18:51:00,35.0,4.0,30.29,North,8,0.0,3.0,27,0.00,,,0.00,,2013-03-02 01:51:00,
2013-03-01 19:01:00,34.0,4.0,30.30,NW,306,0.0,0.0,27,0.00,,,0.00,,2013-03-02 02:01:00,
2013-03-01 19:21:00,34.0,3.0,30.29,North,356,2.0,3.0,26,0.00,,,0.00,,2013-03-02 02:21:00,
2013-03-01 19:31:00,35.0,4.0,30.30,NNE,27,2.0,2.0,26,0.00,,,0.00,,2013-03-02 02:31:00,
2013-03-01 19:52:00,34.0,2.0,30.30,North,352,2.0,3.0,25,0.00,,,0.00,,2013-03-02 02:52:00,
2013-03-01 20:01:00,34.0,4.0,30.30,NNW,346,2.0,3.0,27,0.00,,,0.00,,2013-03-02 03:01:00,
2013-03-01 20:11:00,34.0,4.0,30.30,NNW,346,2.0,3.0,27,0.00,,,0.00,,2013-03-02 03:11:00,
2013-03-01 20:21:00,34.0,3.0,30.30,NNW,345,0.0,0.0,26,0.00,,,0.00,,2013-03-02 03:21:00,
2013-03-01 20:32:00,33.0,3.0,30.31,North,350,0.0,3.0,27,0.00,,,0.00,,2013-03-02 03:32:00,
2013-03-01 20:41:00,33.0,3.0,30.31,North,350,0.0,3.0,27,0.00,,,0.00,,2013-03-02 03:41:00,
2013-03-01 20:52:00,34.0,4.0,30.31,NNW,345,2.0,3.0,27,0.00,,,0.00,,2013-03-02 03:52:00,
2013-03-01 21:01:00,35.0,4.0,30.31,NNW,328,1.0,3.0,27,0.00,,,0.00,,2013-03-02 04:01:00,
2013-03-01 21:11:00,34.0,4.0,30.31,North,354,1.0,3.0,27,0.00,,,0.00,,2013-03-02 04:11:00,
2013-03-01 21:21:00,34.0,4.0,30.31,North,354,1.0,3.0,27,0.00,,,0.00,,2013-03-02 04:21:00,
2013-03-01 21:31:00,33.0,4.0,30.31,East,79,2.0,3.0,29,0.00,,,0.00,,2013-03-02 04:31:00,
2013-03-01 21:41:00,33.0,4.0,30.31,East,79,2.0,3.0,29,0.00,,,0.00,,2013-03-02 04:41:00,
2013-03-01 21:51:00,33.0,6.0,30.31,North,0,2.0,3.0,31,0.00,,,0.00,,2013-03-02 04:51:00,
2013-03-01 22:01:00,33.0,6.0,30.31,ENE,70,0.0,0.0,31,0.00,,,0.00,,2013-03-02 05:01:00,
2013-03-01 22:12:00,33.0,6.0,30.31,ENE,70,0.0,0.0,31,0.00,,,0.00,,2013-03-02 05:12:00,
2013-03-01 22:22:00,33.0,6.0,30.31,ENE,70,0.0,0.0,31,0.00,,,0.00,,2013-03-02 05:22:00,
2013-03-01 22:31:00,32.0,6.0,30.32,ENE,70,0.0,0.0,33,0.00,,,0.00,,2013-03-02 05:31:00,
2013-03-01 22:41:00,32.0,6.0,30.32,ENE,70,0.0,0.0,33,0.00,,,0.00,,2013-03-02 05:41:00,
2013-03-01 22:52:00,31.0,6.0,30.32,East,79,0.0,0.0,34,0.00,,,0.00,,2013-03-02 05:52:00,
2013-03-01 23:01:00,29.0,8.0,30.32,East,79,0.0,0.0,40,0.00,,,0.00,,2013-03-02 06:01:00,
2013-03-01 23:11:00,29.0,8.0,30.32,East,79,0.0,0.0,40,0.00,,,0.00,,2013-03-02 06:11:00,
2013-03-01 23:21:00,28.0,8.0,30.32,East,79,0.0,0.0,42,0.00,,,0.00,,2013-03-02 06:21:00,
2013-03-01 23:31:00,28.0,10.0,30.33,East,79,0.0,0.0,46,0.00,,,0.00,,2013-03-02 06:31:00,
2013-03-01 23:41:00,28.0,10.0,30.33,East,79,0.0,0.0,46,0.00,,,0.00,,2013-03-02 06:41:00,
2013-03-01 23:51:00,28.0,12.0,30.33,East,79,0.0,0.0,50,0.00,,,0.00,,2013-03-02 06:51:00,